KAITUO 1B (40912 NORAD) Tracking and Keplerian Element Data

This shows tracking and keplerian element data for the satellite.

Feedback or suggestion? Click here.




ElementValue
Catalog40912
NameKAITUO 1B
Epoch Orbit46230
Epoch Day12.94514571
Epoch Year2024
RAAN44.5725
Inclination97.3814
Eccentricity0.0002397
Argument of Perigee71.9321
Mean Anonmoly288.2218
Mean Motion15.98908646
Decay Rate0.008173
L11 40912U 15049P 24012.94514571 .00817300 31018-3 17232-2 0 9992
L22 40912 97.3814 44.5725 0002397 71.9321 288.2218 15.98908646462303



Live tracking and technical data element details for KAITUO 1B (NORAD 40912). KAITUO 1B can be tracked NOW for your location showing map with azimuth and elevation plus other details from your city location.







IsCatalogInMostPopularTable: catalog: 40912, numindb: 657
Update: records affected: 1



GetName: 40912 KAITUO 1B

Hit Count: updated at: Sun, 23 Jun 2024 00:46:22 GMT